Regional Weather Roundup
Issued by NWS

Home | Current Version | Previous Version | Graphics & Text | Print | Product List | Glossary On
Versions: 1 2 3 4 5 6 7 8 9 10 11 12 13 14 15 16 17 18 19 20 21 22 23 24 25 26 27 28 29 30 31 32 33 34 35 36 37 38 39 40 41 42 43 44 45 46 47 48 49 50
000
ASUS43 KMKX 301825
RWRWI

WISCONSIN REGIONAL WEATHER ROUNDUP
NATIONAL WEATHER SERVICE MILWAUKEE/SULLIVAN WI
100 PM CDT THU OCT 30 2014

NOTE: "FAIR" INDICATES FEW OR NO CLOUDS BELOW 12,000 FEET WITH NO
SIGNIFICANT WEATHER AND/OR OBSTRUCTIONS TO VISIBILITY.

WIZ001-002-006>008-014>016-023>028-301900-
NORTHWEST WISCONSIN

CITY           SKY/WX    TMP DP  RH WIND       PRES   REMARKS
SUPERIOR ARPT  CLOUDY    42  32  67 NW7       30.11S
6HR MIN TEMP:  35; 6HR MAX TEMP:  42;

ASHLAND        CLOUDY    42  33  70 W8        30.08F
6HR MIN TEMP:  38; 6HR MAX TEMP:  43;

HAYWARD        CLOUDY    40  32  73 W7        30.08F
6HR MIN TEMP:  35; 6HR MAX TEMP:  40; 6HR PCP: TRACE;

SIREN          CLOUDY    40  34  77 NW3       30.11S
6HR MIN TEMP:  34; 6HR MAX TEMP:  41;

CUMBERLAND     CLOUDY    41  32  70 N7        30.09S
RICE LAKE      CLOUDY    44  33  65 W7        30.10S
6HR MIN TEMP:  34; 6HR MAX TEMP:  44;

CHETEK         CLOUDY    45  34  66 NW3       30.08F
6HR MIN TEMP:  33; 6HR MAX TEMP:  45;

LADYSMITH      CLOUDY    42  34  73 NW7       30.09S
6HR MIN TEMP:  35; 6HR MAX TEMP:  42;

EAU CLAIRE     CLOUDY    48  35  60 VRB3      30.07F
6HR MIN TEMP:  35; 6HR MAX TEMP:  48;

MENOMONIE      CLOUDY    48  36  61 CALM      30.08F
6HR MIN TEMP:  36; 6HR MAX TEMP:  49;

NEW RICHMOND   CLOUDY    47  34  60 N6        30.10S
6HR MIN TEMP:  37; 6HR MAX TEMP:  47;

OSCEOLA        CLOUDY    46  35  67 N6        30.13S
6HR MIN TEMP:  37; 6HR MAX TEMP:  46;

$$

WIZ003>005-009-010-017-018-301900-
NORTH CENTRAL WISCONSIN

CITY           SKY/WX    TMP DP  RH WIND       PRES   REMARKS
MANITOWISH WTR CLOUDY    37  33  84 NW6       30.04S WCI  32
6HR MIN TEMP:  35; 6HR MAX TEMP:  37;

ARBOR VITAE    CLOUDY    39  33  78 NW6       30.03F WCI  35
6HR MIN TEMP:  37; 6HR MAX TEMP:  39;

WOODRUFF       CLOUDY    39  33  78 NW6       30.03F WCI  35
6HR MIN TEMP:  37; 6HR MAX TEMP:  39;

RHINELANDER    CLOUDY    40  32  73 NW9       30.04F WCI  34
6HR MIN TEMP:  36; 6HR MAX TEMP:  40;

EAGLE RIVER    CLOUDY    39  30  71 NW9       30.02F WCI  33
6HR MIN TEMP:  36; 6HR MAX TEMP:  39;

LAND O LAKES   CLOUDY    39  33  80 W5        30.03S
6HR MIN TEMP:  36; 6HR MAX TEMP:  39;

PHILLIPS       CLOUDY    39  32  75 NW5       30.05S
6HR MIN TEMP:  35; 6HR MAX TEMP:  40;

TOMAHAWK       CLOUDY    42  32  67 CALM      30.04F
6HR MIN TEMP:  34; 6HR MAX TEMP:  42;

MEDFORD        CLOUDY    41  33  73 W8        30.05F
6HR MIN TEMP:  32; 6HR MAX TEMP:  41;

MERRILL        CLOUDY    43  34  70 W5        30.05F
6HR MIN TEMP:  31; 6HR MAX TEMP:  43;

$$

WIZ029-030-035-036-043>047-301900-
CENTRAL WISCONSIN

CITY           SKY/WX    TMP DP  RH WIND       PRES   REMARKS
WAUSAU         PTSUNNY   42  34  73 W5        30.04F
6HR MIN TEMP:  33; 6HR MAX TEMP:  42;

MOSINEE        CLOUDY    43  36  75 NW5       30.06F
MARSHFIELD     CLOUDY    47  35  63 NW8       30.05F
6HR MIN TEMP:  33; 6HR MAX TEMP:  48; 6HR PCP: TRACE;

STEVENS POINT  PTSUNNY   44  34  67 SW6       30.06F
6HR MIN TEMP:  29; 6HR MAX TEMP:  44;

WAUPACA        PTSUNNY   49  35  58 SW6       30.06F
6HR MIN TEMP:  34; 6HR MAX TEMP:  50;

WAUTOMA        CLOUDY    50  35  56 W7        30.07F
6HR MIN TEMP:  29; 6HR MAX TEMP:  50;

WISC RAPIDS    MOSUNNY   48  35  60 VRB3      30.07F
6HR MIN TEMP:  32; 6HR MAX TEMP:  48;

CAMP DOUGLAS   CLOUDY    46  39  76 VRB7      30.07F
$$

WIZ011>013-019>022-031-037>040-048>050-301900-
NORTHEAST WISCONSIN

CITY           SKY/WX    TMP DP  RH WIND       PRES   REMARKS
ANTIGO         CLOUDY    42  34  75 W9        30.04F
6HR MIN TEMP:  32; 6HR MAX TEMP:  42;

SHAWANO        CLOUDY    45  35  68 W8        30.06F
6HR MIN TEMP:  37; 6HR MAX TEMP:  45;

OCONTO         CLOUDY    45  34  66 SW9       30.04F
6HR MIN TEMP:  37; 6HR MAX TEMP:  46;

STURGEON BAY   CLOUDY    45  34  65 W8        30.04F
6HR MIN TEMP:  39; 6HR MAX TEMP:  45;

GREEN BAY      CLOUDY    46  35  65 W12       30.06F
6HR MIN TEMP:  37; 6HR MAX TEMP:  47;

MANITOWOC      PTSUNNY   49  36  61 W10       30.05F
6HR MIN TEMP:  38; 6HR MAX TEMP:  49;

APPLETON       PTSUNNY   46  34  61 W8        30.07F
CLINTONVILLE   CLOUDY    43  32  65 W8        30.06F
OSHKOSH        CLOUDY    48  35  60 W9        30.06F
6HR MIN TEMP:  35; 6HR MAX TEMP:  48;

$$

WIZ032>034-041-042-053>061-301900-
SOUTHWEST WISCONSIN

CITY           SKY/WX    TMP DP  RH WIND       PRES   REMARKS
LA CROSSE      CLOUDY    46  36  68 CALM      30.09S
6HR MIN TEMP:  38; 6HR MAX TEMP:  46;

SPARTA         CLOUDY    45  35  69 CALM      30.09F
6HR MIN TEMP:  31; 6HR MAX TEMP:  45;

VIROQUA        CLOUDY    44  36  73 W5        30.07F
6HR MIN TEMP:  36; 6HR MAX TEMP:  44;

BOSCOBEL       CLOUDY    49  37  63 CALM      30.09F
6HR MIN TEMP:  32; 6HR MAX TEMP:  49;

PRAIRIE DU CHI CLOUDY    47  36  65 CALM      30.08F
6HR MIN TEMP:  34; 6HR MAX TEMP:  47;

PLATTEVILLE    CLOUDY    49  37  63 SW5       30.08F
6HR MIN TEMP:  35; 6HR MAX TEMP:  49;

$$

WIZ056-057-062-063-064-067-068-301900-
SOUTH CENTRAL WISCONSIN

CITY           SKY/WX    TMP DP  RH WIND       PRES   REMARKS
REEDSBURG      CLOUDY    46  36  69 W5        30.07F
6HR MIN TEMP:  31; 6HR MAX TEMP:  46;

BARABOO/DELLS  CLOUDY    46  34  62 SW6       30.07F
6HR MIN TEMP:  32; 6HR MAX TEMP:  47;

LONE ROCK      CLOUDY    51  36  56 CALM      30.08F
6HR MIN TEMP:  36; 6HR MAX TEMP:  51;

MINERAL POINT  CLOUDY    50  34  53 CALM      30.07F
MADISON        PTSUNNY   51  36  56 SW6       30.07F
6HR MIN TEMP:  34; 6HR MAX TEMP:  51;

MIDDLETON      PTSUNNY   52  33  49 NW5       30.07F
6HR MIN TEMP:  36; 6HR MAX TEMP:  52;

WATERTOWN      PTSUNNY   49  35  58 W5        30.07F
6HR MIN TEMP:  30; 6HR MAX TEMP:  49;

MONROE         CLOUDY    50  36  57 SW5       30.07F
JANESVILLE     MOSUNNY   52  36  54 CALM      30.07F
$$

WIZ051-052-058>065-066-070>072-301900-
SOUTHEAST WISCONSIN

CITY           SKY/WX    TMP DP  RH WIND       PRES   REMARKS
MILWAUKEE      PTSUNNY   50  33  52 W8        30.08F
6HR MIN TEMP:  36; 6HR MAX TEMP:  50;

WAUKESHA       MOSUNNY   46  34  61 SW6       30.09F
MILWAUKEE/TIMM MOSUNNY   48  32  53 W10       30.08F
RACINE         MOSUNNY   50  34  54 SW10      30.09F
6HR MIN TEMP:  35; 6HR MAX TEMP:  51;

BURLINGTON     PTSUNNY   48  33  55 SW10G16   30.08F
6HR MIN TEMP:  28; 6HR MAX TEMP:  49;

KENOSHA        MOSUNNY   51  35  54 SW12      30.08F
6HR MIN TEMP:  33; 6HR MAX TEMP:  51;

FOND DU LAC    CLOUDY    49  35  58 W9        30.06F
6HR MIN TEMP:  32; 6HR MAX TEMP:  49;

SHEBOYGAN      CLOUDY    48  34  58 W9        30.06F
6HR MIN TEMP:  34; 6HR MAX TEMP:  50;

WEST BEND      PTSUNNY   48  32  53 W12       30.06F
JUNEAU         PTSUNNY   46  35  64 W7        30.08F
6HR MIN TEMP:  31; 6HR MAX TEMP:  47;

$$

LSZ147-162-301900-
LAKE SUPERIOR

STATION/POSITION TIME  TEMP    WIND        PRES    WAVE
                       AIR SEA DIR/SP/G            HT/PER
                 (UTC) (F)     (DEG/KT/KT) (MB)    (FT/S)
W MID LAKE BUOY  1750   41 45  350/ 10/ 12 1017.5S   1/ 3
DEVILS ISLAND    1800   42     300/ 12/ 14 1018.7S
PORT WING        1700   42     300/ 12/ 15 1019.0S
SAXON HARBOR     1700   42     280/  3/  8 1018.3S
$$

LMZ867-665-643>646-301900-
LAKE MICHIGAN

STATION/POSITION TIME  TEMP    WIND        PRES    WAVE



USA.gov is the U.S. government's official web portal to all federal, state and local government web resources and services.